Location: Breungeshain
(50.5000°N, 9.2000°E)
Time: 07:36:16
(UTC+00:00)

ISS - Pass Details

Date: 26 May 2018
Orbit: 402 x 407 km, 51.6° (Epoch: 27 May)

Event Time Altitude Azimuth Distance (km) Brightness Sun altitude
Rises 20:42:53 0° 264° (W) 2,320 0.5 -10.3°
Reaches altitude 10° 20:44:58 10° 266° (W) 1,460 -0.6 -10.5°
Maximum altitude 20:48:14 75° 351° (N) 422 -3.6 -10.8°
Drops below altitude 10° 20:51:31 10° 79° (E) 1,460 -1.2 -11.1°
Sets 20:53:36 0° 81° (E) 2,320 -0.2 -11.3°
